Tehachapi, CA

12:37 AM PST on February 25, 2018 (GMT -0800)
Tehachapi Municipal

Weather History for KTSP - December, 2011

Change the Weather History Date:

Saturday, December 17, 2011

  Actual Average Record
Temperature  
Mean Temperature 49 °F -  
Max Temperature 57 °F 52 °F 66 °F (2013)
Min Temperature 41 °F 32 °F 21 °F (2016)
Degree Days  
Heating Degree Days 16    
Moisture  
Dew Point 17 °F    
Average Humidity 31    
Maximum Humidity 61    
Minimum Humidity 18    
Precipitation  
Precipitation 0.00 in - - ()
Sea Level Pressure  
Sea Level Pressure 30.15 in    
Wind  
Wind Speed 15 mph (East)    
Max Wind Speed 22 mph    
Max Gust Speed 38 mph    
Visibility 10 miles    
Events      
Averages and records for this station are not official NWS values.
T = Trace of Precipitation, MM = Missing Value Source: NWS Daily Summary

Daily Weather History Graph

Daily Weather History Graph

Search for Another Location

Airport or City:

Trip Planner

Search our weather history database for the weather conditions in past years. The results will help you decide how hot, cold, wet, or windy it might be!

Date:

Astronomy

Dec. 17, 2011 Rise Set
Actual Time 6:55 AM PST 4:43 PM PST
Civil Twilight 6:27 AM PST 5:12 PM PST
Nautical Twilight 5:55 AM PST 5:43 PM PST
Astronomical Twilight 5:25 AM PST 6:14 PM PST
Moon No Moon Rise 11:28 AM PST (12/17)
Length of Visible Light 10h 44m
Length of Day
9h 47m
Waning Gibbous, 52% of the Moon is Illuminated
Dec 17
Waning Gibbous
Dec 17
Last Quarter
Dec 24
New
Dec 31
First Quarter
Jan 8
Full

Hourly Weather History & Observations

Time (PST) Temp. Windchill Dew Point Humidity Pressure Visibility Wind Dir Wind Speed Gust Speed Precip Events Conditions
12:15 AM 46.4 °F 39.2 °F 14.0 °F 27% 30.18 in 10.0 mi ENE 18.4 mph 26.5 mph N/A   Clear
12:35 AM 46.4 °F 39.5 °F 14.0 °F 27% 30.18 in 10.0 mi East 17.3 mph 26.5 mph N/A   Clear
12:55 AM 46.4 °F 40.4 °F 14.0 °F 27% 30.17 in 10.0 mi East 13.8 mph 25.3 mph N/A   Clear
1:15 AM 46.4 °F 38.5 °F 14.0 °F 27% 30.16 in 10.0 mi East 21.9 mph 33.4 mph N/A   Clear
1:35 AM 46.4 °F 38.7 °F 14.0 °F 27% 30.16 in 10.0 mi ENE 20.7 mph 28.8 mph N/A   Clear
1:55 AM 46.4 °F 38.5 °F 12.2 °F 25% 30.15 in 10.0 mi East 21.9 mph 29.9 mph N/A   Clear
2:15 AM 46.4 °F 38.7 °F 12.2 °F 25% 30.16 in 10.0 mi ENE 20.7 mph 26.5 mph N/A   Clear
2:35 AM 46.4 °F 39.0 °F 14.0 °F 27% 30.16 in 10.0 mi ENE 19.6 mph 27.6 mph N/A   Clear
2:55 AM 46.4 °F 39.2 °F 14.0 °F 27% 30.16 in 10.0 mi ENE 18.4 mph 38.0 mph N/A   Clear
3:15 AM 46.4 °F 40.1 °F 14.0 °F 27% 30.15 in 10.0 mi ENE 15.0 mph 27.6 mph N/A   Clear
3:35 AM 46.4 °F 39.2 °F 14.0 °F 27% 30.14 in 10.0 mi ENE 18.4 mph 24.2 mph N/A   Clear
3:55 AM 46.4 °F 39.5 °F 14.0 °F 27% 30.14 in 10.0 mi ENE 17.3 mph 28.8 mph N/A   Clear
4:15 AM 46.4 °F 40.4 °F 14.0 °F 27% 30.14 in 10.0 mi East 13.8 mph 20.7 mph N/A   Clear
4:35 AM 46.4 °F 40.1 °F 14.0 °F 27% 30.15 in 10.0 mi ENE 15.0 mph 21.9 mph N/A   Clear
4:55 AM 46.4 °F 38.7 °F 12.2 °F 25% 30.15 in 10.0 mi ENE 20.7 mph 26.5 mph N/A   Clear
5:15 AM 46.4 °F 39.2 °F 12.2 °F 25% 30.15 in 10.0 mi ENE 18.4 mph 31.1 mph N/A   Clear
5:35 AM 46.4 °F 39.8 °F 12.2 °F 25% 30.16 in 10.0 mi ENE 16.1 mph 26.5 mph N/A   Clear
5:55 AM 46.4 °F 39.8 °F 12.2 °F 25% 30.17 in 10.0 mi East 16.1 mph 24.2 mph N/A   Clear
6:15 AM 46.4 °F 40.4 °F 12.2 °F 25% 30.17 in 10.0 mi East 13.8 mph 21.9 mph N/A   Clear
6:55 AM 46.4 °F 40.4 °F 10.4 °F 23% 30.17 in 10.0 mi ENE 13.8 mph 19.6 mph N/A   Clear
7:35 AM 46.4 °F 40.7 °F 10.4 °F 23% 30.18 in 10.0 mi ENE 12.7 mph 19.6 mph N/A   Clear
7:55 AM 48.2 °F - 10.4 °F 22% 30.19 in 10.0 mi East 12.7 mph 21.9 mph N/A   Clear
8:15 AM 50.0 °F - 12.2 °F 22% 30.19 in 10.0 mi East 12.7 mph 25.3 mph N/A   Clear
8:35 AM 50.0 °F - 12.2 °F 22% 30.18 in 9.0 mi East 17.3 mph 20.7 mph N/A   Clear
8:55 AM 51.8 °F - 12.2 °F 21% 30.18 in 10.0 mi East 17.3 mph 20.7 mph N/A   Clear
9:15 AM 51.8 °F - 12.2 °F 21% 30.18 in 10.0 mi East 15.0 mph 25.3 mph N/A   Clear
9:35 AM 50.0 °F - 12.2 °F 22% 30.18 in 10.0 mi ENE 8.1 mph 19.6 mph N/A   Clear
9:55 AM 51.8 °F - 14.0 °F 22% 30.19 in 10.0 mi East 12.7 mph 16.1 mph N/A   Clear
10:15 AM 53.6 °F - 12.2 °F 19% 30.19 in 10.0 mi East 15.0 mph 20.7 mph N/A   Clear
10:35 AM 51.8 °F - 15.8 °F 24% 30.18 in 10.0 mi SE 12.7 mph 23.0 mph N/A   Clear
11:15 AM 55.4 °F - 14.0 °F 20% 30.16 in 10.0 mi East 13.8 mph 24.2 mph N/A   Clear
11:35 AM 55.4 °F - 14.0 °F 20% 30.15 in 10.0 mi ENE 18.4 mph 27.6 mph N/A   Clear
11:55 AM 57.2 °F - 14.0 °F 18% 30.14 in 10.0 mi East 13.8 mph 24.2 mph N/A   Clear
12:15 PM 57.2 °F - 15.8 °F 20% 30.13 in 10.0 mi East 19.6 mph 28.8 mph N/A   Clear
12:35 PM 57.2 °F - 15.8 °F 20% 30.13 in 9.0 mi East 18.4 mph 25.3 mph N/A   Clear
1:15 PM 55.4 °F - 14.0 °F 20% 30.12 in 10.0 mi ENE 16.1 mph 29.9 mph N/A   Clear
1:35 PM 55.4 °F - 14.0 °F 20% 30.11 in 10.0 mi East 18.4 mph 23.0 mph N/A   Clear
1:55 PM 55.4 °F - 15.8 °F 21% 30.12 in 10.0 mi SE 11.5 mph - N/A   Clear
2:15 PM 55.4 °F - 15.8 °F 21% 30.11 in 10.0 mi SSE 10.4 mph - N/A   Clear
2:35 PM 55.4 °F - 14.0 °F 20% 30.10 in 10.0 mi ESE 11.5 mph - N/A   Clear
3:15 PM 53.6 °F - 14.0 °F 21% 30.10 in 10.0 mi SE 6.9 mph - N/A   Clear
3:35 PM 53.6 °F - 14.0 °F 21% 30.11 in 9.0 mi SE 6.9 mph - N/A   Clear
3:55 PM 50.0 °F - 21.2 °F 32% 30.11 in 8.0 mi WNW 6.9 mph - N/A   Clear
4:15 PM 46.4 °F 41.9 °F 19.4 °F 34% 30.12 in 9.0 mi NW 9.2 mph - N/A   Clear
4:35 PM 46.4 °F 44.3 °F 23.0 °F 40% 30.13 in 7.0 mi WSW 4.6 mph - N/A   Clear
4:55 PM 48.2 °F - 23.0 °F 37% 30.14 in 9.0 mi East 10.4 mph - N/A   Clear
5:15 PM 50.0 °F - 21.2 °F 32% 30.14 in 10.0 mi ESE 15.0 mph 21.9 mph N/A   Clear
5:35 PM 48.2 °F - 23.0 °F 37% 30.15 in 10.0 mi SE 16.1 mph - N/A   Clear
5:55 PM 46.4 °F 43.5 °F 24.8 °F 43% 30.15 in 10.0 mi ESE 5.8 mph - N/A   Clear
6:15 PM 44.6 °F - 24.8 °F 46% 30.15 in 10.0 mi Calm Calm - N/A   Clear
6:35 PM 42.8 °F 41.1 °F 24.8 °F 49% 30.15 in 10.0 mi SE 3.5 mph - N/A   Clear
6:55 PM 42.8 °F 37.5 °F 24.8 °F 49% 30.16 in 10.0 mi SE 9.2 mph - N/A   Clear
7:15 PM 44.6 °F 42.2 °F 26.6 °F 49% 30.17 in 10.0 mi ESE 4.6 mph - N/A   Clear
7:35 PM 44.6 °F 42.2 °F 26.6 °F 49% 30.17 in 10.0 mi SE 4.6 mph - N/A   Clear
7:55 PM 44.6 °F 43.1 °F 26.6 °F 49% 30.16 in 10.0 mi SE 3.5 mph - N/A   Clear
8:15 PM 44.6 °F - 26.6 °F 49% 30.17 in 10.0 mi Calm Calm - N/A   Clear
8:35 PM 41.0 °F - 26.6 °F 57% 30.16 in 10.0 mi Calm Calm - N/A   Clear
8:55 PM 41.0 °F 39.0 °F 26.6 °F 57% 30.15 in 10.0 mi ENE 3.5 mph - N/A   Clear
9:15 PM 41.0 °F 38.0 °F 26.6 °F 57% 30.16 in 10.0 mi East 4.6 mph - N/A   Clear
9:35 PM 41.0 °F - 28.4 °F 61% 30.17 in 10.0 mi Calm Calm - N/A   Clear
9:55 PM 44.6 °F - 26.6 °F 49% 30.18 in 10.0 mi Calm Calm - N/A   Clear
10:15 PM 44.6 °F 43.1 °F 26.6 °F 49% 30.17 in 10.0 mi SSW 3.5 mph - N/A   Clear
10:35 PM 42.8 °F - 26.6 °F 53% 30.18 in 10.0 mi Calm Calm - N/A   Clear
10:55 PM 44.6 °F 39.7 °F 26.6 °F 49% 30.19 in 10.0 mi NE 9.2 mph 17.3 mph N/A   Clear
11:15 PM 46.4 °F - 30.2 °F 53% 30.18 in 10.0 mi Calm Calm - N/A   Clear
11:35 PM 44.6 °F 42.2 °F 32.0 °F 61% 30.17 in 10.0 mi SSW 4.6 mph - N/A   Clear